EA7HQL-10 Weather Reports


time (UTC)temp
C
wind
direction
speed
KPH
gust
KPH
rain 1hr
cm
rain 24hr
cm
rain mn
cm
humidity
%
barometer
mb
20260510234814 17 304 3.2 4.8 0.00 0.00 0.00 60 1013.3
20260510234414 17 127 0.0 6.4 0.00 0.00 0.00 61 1013.6
20260510233919 17 112 0.0 1.6 0.00 0.00 0.00 62 1013.5
20260510233501 17 130 0.0 3.2 0.00 0.00 0.00 62 1013.6
20260510233054 17 109 0.0 3.2 0.00 0.00 0.00 63 1013.6
20260510232644 17 102 0.0 1.6 0.00 0.00 0.00 63 1013.6
20260510232244 17 111 0.0 3.2 0.00 0.00 0.00 63 1013.8
20260510231839 17 102 0.0 1.6 0.00 0.00 0.00 63 1013.7
20260510231432 17 99 0.0 1.6 0.00 0.00 0.00 63 1013.5
20260510231024 17 93 0.0 0.0 0.00 0.00 0.00 64 1013.8
20260510230529 17 93 0.0 3.2 0.00 0.00 0.00 64 1013.6
20260510230044 17 96 0.0 1.6 0.00 0.00 0.00 63 1013.7
20260510225547 17 103 0.0 3.2 0.00 0.00 0.00 63 1013.5
20260510225139 17 92 1.6 4.8 0.00 0.00 0.00 63 1013.7
20260510224727 17 105 0.0 3.2 0.00 0.00 0.00 64 1013.7
20260510224234 18 73 1.6 3.2 0.00 0.00 0.00 62 1013.8
20260510223829 18 138 1.6 6.4 0.00 0.00 0.00 60 1013.8
20260510223404 18 263 4.8 6.4 0.00 0.00 0.00 60 1013.8
20260510222955 18 245 1.6 8.0 0.00 0.00 0.00 60 1013.8
20260510222555 18 75 1.6 3.2 0.00 0.00 0.00 60 1013.8
20260510222139 18 353 4.8 9.7 0.00 0.00 0.00 59 1013.6
20260510221731 18 164 1.6 6.4 0.00 0.00 0.00 60 1013.8
20260510221240 18 227 4.8 9.7 0.00 0.00 0.00 60 1013.8
20260510220819 18 324 3.2 6.4 0.00 0.00 0.00 61 1013.7
20260510220354 18 261 4.8 8.0 0.00 0.00 0.00 61 1013.7
20260510215944 18 169 4.8 6.4 0.00 0.03 0.03 61 1013.6
20260510215529 18 251 3.2 6.4 0.00 0.03 0.03 61 1013.7
20260510215127 18 39 3.2 6.4 0.00 0.03 0.03 62 1013.6
20260510214714 18 93 0.0 1.6 0.00 0.03 0.03 63 1013.8
20260510214304 18 116 0.0 0.0 0.00 0.03 0.03 63 1013.6
20260510213847 18 104 0.0 1.6 0.00 0.03 0.03 65 1013.8
20260510213439 18 102 1.6 3.2 0.00 0.03 0.03 64 1013.7
20260510213027 18 49 3.2 4.8 0.00 0.03 0.03 63 1013.7
20260510212603 18 105 0.0 0.0 0.00 0.03 0.03 64 1013.7
20260510212109 18 122 0.0 4.8 0.00 0.03 0.03 63 1013.8
20260510211629 18 35 0.0 3.2 0.00 0.03 0.03 62 1013.7
20260510211214 18 157 0.0 1.6 0.00 0.03 0.03 62 1013.7
20260510210814 18 102 0.0 3.2 0.00 0.03 0.03 61 1013.7
20260510210404 18 175 3.2 3.2 0.00 0.03 0.03 62 1013.7
20260510205959 18 75 0.0 3.2 0.00 0.03 0.03 62 1013.8
20260510205539 18 255 1.6 4.8 0.00 0.03 0.03 61 1013.9
20260510205049 18 107 0.0 1.6 0.00 0.03 0.03 63 1013.6
20260510204559 18 190 0.0 3.2 0.00 0.03 0.03 62 1013.5
20260510204149 18 90 0.0 3.2 0.00 0.03 0.03 63 1013.7
20260510203659 18 284 1.6 8.0 0.00 0.03 0.03 63 1013.6
20260510203218 18 125 3.2 4.8 0.00 0.03 0.03 64 1013.6
20260510202734 18 127 0.0 1.6 0.00 0.03 0.03 64 1013.7
20260510202319 18 97 0.0 4.8 0.00 0.03 0.03 64 1013.6
20260510201839 18 83 1.6 4.8 0.00 0.03 0.03 64 1013.5
20260510201359 18 95 0.0 1.6 0.00 0.03 0.03 65 1013.5
20260510200909 18 84 0.0 1.6 0.00 0.03 0.03 65 1013.3
20260510200504 18 111 1.6 3.2 0.00 0.03 0.03 65 1013.5
20260510200059 18 103 0.0 0.0 0.00 0.03 0.03 64 1013.2
20260510195604 18 107 0.0 0.0 0.00 0.03 0.03 63 1013.1
20260510195159 18 111 0.0 1.6 0.00 0.03 0.03 64 1013.0
20260510194704 18 134 0.0 3.2 0.00 0.03 0.03 63 1012.9
20260510194259 19 145 1.6 3.2 0.00 0.03 0.03 62 1013.1
20260510193832 19 92 1.6 4.8 0.00 0.03 0.03 61 1012.9
20260510193429 19 73 1.6 3.2 0.00 0.03 0.03 60 1012.9
20260510192934 20 163 0.0 3.2 0.00 0.03 0.03 59 1012.8
20260510192519 20 95 3.2 9.7 0.00 0.03 0.03 58 1012.5
20260510192034 20 98 0.0 4.8 0.00 0.03 0.03 57 1012.5
20260510191626 20 235 4.8 8.0 0.00 0.03 0.03 56 1012.9
20260510191209 20 221 6.4 12.9 0.00 0.03 0.03 55 1012.8
20260510190800 20 163 4.8 8.0 0.00 0.03 0.03 53 1012.5
20260510190404 20 237 11.3 14.5 0.00 0.03 0.03 52 1012.5
20260510185958 20 217 4.8 8.0 0.00 0.03 0.03 52 1012.5
20260510185544 20 197 6.4 8.0 0.00 0.03 0.03 52 1012.8
20260510185144 20 212 6.4 9.7 0.00 0.03 0.03 52 1012.5
20260510184654 20 314 4.8 9.7 0.00 0.03 0.03 52 1012.4
20260510184214 20 202 6.4 9.7 0.00 0.03 0.03 52 1012.4
20260510183754 21 199 4.8 12.9 0.00 0.03 0.03 52 1012.6
20260510183349 21 202 8.0 14.5 0.00 0.03 0.03 51 1012.6
20260510182934 21 205 6.4 17.7 0.00 0.03 0.03 52 1012.8
20260510182459 21 263 4.8 9.7 0.00 0.03 0.03 52 1013.0
20260510182019 21 167 3.2 4.8 0.00 0.03 0.03 53 1013.0
20260510181606 21 176 4.8 9.7 0.00 0.03 0.03 53 1012.5
20260510181159 21 173 3.2 4.8 0.00 0.03 0.03 52 1012.6
20260510180729 21 45 1.6 3.2 0.00 0.03 0.03 54 1012.6
20260510180309 21 113 1.6 4.8 0.00 0.03 0.03 51 1012.9
20260510175859 21 91 1.6 9.7 0.00 0.03 0.03 52 1012.6
20260510175404 21 123 1.6 4.8 0.00 0.03 0.03 57 1012.8
20260510174932 21 140 0.0 3.2 0.00 0.03 0.03 56 1012.8
20260510174442 21 107 0.0 1.6 0.00 0.03 0.03 57 1012.2
20260510174015 21 139 0.0 3.2 0.00 0.03 0.03 59 1012.5
20260510173529 21 100 0.0 3.2 0.00 0.03 0.03 61 1012.4
20260510173114 21 112 3.2 4.8 0.00 0.03 0.03 61 1012.2
20260510172644 21 137 0.0 1.6 0.00 0.03 0.03 62 1012.1
20260510172210 21 194 6.4 9.7 0.00 0.03 0.03 62 1012.3
20260510171744 21 163 3.2 6.4 0.00 0.03 0.03 63 1012.3
20260510171334 21 161 4.8 14.5 0.00 0.03 0.03 64 1012.5
20260510170924 20 203 9.7 14.5 0.00 0.03 0.03 65 1012.3
20260510170455 20 164 6.4 9.7 0.00 0.03 0.03 67 1012.3
20260510170019 20 176 9.7 12.9 0.00 0.03 0.03 68 1012.2
20260510165520 20 132 1.6 6.4 0.00 0.03 0.03 73 1012.3
20260510165100 20 102 3.2 16.1 0.00 0.03 0.03 73 1012.2
20260510164652 19 138 6.4 14.5 0.00 0.03 0.03 73 1012.3
20260510164210 19 155 9.7 9.7 0.00 0.03 0.03 74 1012.5
20260510163749 18 152 9.7 20.9 0.00 0.03 0.03 73 1012.9
20260510163344 18 164 9.7 16.1 0.00 0.03 0.03 74 1012.8
20260510162919 18 138 4.8 9.7 0.00 0.03 0.03 74 1012.8
20260510162444 18 130 8.0 16.1 0.00 0.03 0.03 75 1013.1
20260510162029 18 139 9.7 16.1 0.00 0.03 0.03 74 1013.1
20260510161532 18 151 3.2 17.7 0.00 0.03 0.03 75 1013.2
20260510161035 18 153 12.9 20.9 0.00 0.03 0.03 75 1013.0
20260510160539 18 119 8.0 16.1 0.00 0.03 0.03 74 1012.8
20260510160041 19 173 6.4 14.5 0.00 0.03 0.03 74 1012.8
20260510155559 19 154 11.3 14.5 0.00 0.03 0.03 72 1012.9
20260510155134 19 156 9.7 19.3 0.00 0.03 0.03 73 1012.8
20260510154654 20 156 3.2 8.0 0.00 0.03 0.03 72 1012.6
20260510154232 20 216 9.7 14.5 0.00 0.03 0.03 72 1012.8
20260510153739 19 166 4.8 16.1 0.00 0.03 0.03 74 1012.5
20260510153309 19 193 3.2 12.9 0.00 0.03 0.03 74 1012.8
20260510152844 19 140 11.3 22.5 0.00 0.03 0.03 74 1012.8
20260510152349 18 183 8.0 16.1 0.00 0.03 0.03 75 1012.9
20260510151949 18 174 8.0 20.9 0.00 0.03 0.03 75 1012.8
20260510151511 18 113 9.7 14.5 0.00 0.03 0.03 76 1012.5
20260510151104 19 159 8.0 16.1 0.00 0.03 0.03 75 1012.5
20260510150609 19 149 12.9 16.1 0.00 0.03 0.03 75 1012.5
20260510150124 18 158 11.3 16.1 0.00 0.03 0.03 77 1012.9
20260510145645 18 153 9.7 16.1 0.00 0.03 0.03 77 1012.8
20260510145214 18 175 6.4 9.7 0.00 0.03 0.03 79 1013.0
20260510144739 18 113 8.0 17.7 0.00 0.03 0.03 80 1013.2
20260510144322 18 163 6.4 14.5 0.00 0.03 0.03 80 1013.2
20260510143839 18 167 9.7 14.5 0.00 0.03 0.03 80 1013.5
20260510143409 18 112 0.0 8.0 0.00 0.03 0.03 79 1013.4
20260510142934 18 199 6.4 16.1 0.00 0.03 0.03 80 1013.6
20260510142524 19 189 12.9 17.7 0.00 0.03 0.03 78 1013.4
20260510142044 19 141 8.0 17.7 0.00 0.03 0.03 77 1013.4
20260510141639 20 205 6.4 12.9 0.00 0.03 0.03 75 1013.4
20260510141149 20 149 8.0 14.5 0.00 0.03 0.03 75 1013.5
20260510140752 20 213 9.7 14.5 0.00 0.03 0.03 74 1013.6
20260510140252 20 208 8.0 17.7 0.00 0.03 0.03 74 1013.6
20260510135809 20 139 3.2 14.5 0.00 0.03 0.03 73 1013.5
20260510135404 19 226 6.4 16.1 0.00 0.03 0.03 77 1013.7
20260510134959 19 158 6.4 16.1 0.00 0.03 0.03 77 1013.6
20260510134509 19 116 9.7 19.3 0.03 0.03 0.03 77 1013.7
20260510134049 20 118 3.2 17.7 0.03 0.03 0.03 77 1013.6
20260510133129 19 90 3.2 8.0 0.03 0.03 0.03 78 1013.8
20260510132655 19 145 8.0 12.9 0.03 0.03 0.03 75 1013.8
20260510132214 19 102 0.0 6.4 0.03 0.03 0.03 75 1013.5
20260510131729 19 161 6.4 12.9 0.03 0.03 0.03 76 1013.8
20260510131329 20 199 9.7 14.5 0.03 0.03 0.03 77 1013.8
20260510130909 18 128 3.2 16.1 0.03 0.03 0.03 78 1013.9
20260510130444 19 190 9.7 14.5 0.03 0.03 0.03 81 1013.8
20260510125949 18 220 11.3 16.1 0.03 0.03 0.03 83 1013.9
20260510125524 18 135 0.0 4.8 0.03 0.03 0.03 86 1014.1
20260510125049 17 143 1.6 8.0 0.03 0.03 0.03 86 1013.8
20260510124614 17 236 6.4 8.0 0.00 0.00 0.00 84 1013.8
20260510124139 17 122 3.2 4.8 0.00 0.00 0.00 84 1013.8
20260510123654 18 155 6.4 8.0 0.00 0.00 0.00 82 1013.8
20260510123219 18 139 1.6 8.0 0.00 0.00 0.00 82 1013.9
20260510122809 18 140 1.6 8.0 0.00 0.00 0.00 81 1013.5
20260510122317 18 99 0.0 8.0 0.00 0.00 0.00 79 1013.7
20260510121839 18 143 1.6 8.0 0.00 0.00 0.00 78 1013.6
20260510121404 18 89 6.4 9.7 0.00 0.00 0.00 78 1013.8
20260510120954 18 137 4.8 9.7 0.00 0.00 0.00 78 1013.8
20260510120546 18 129 4.8 9.7 0.00 0.00 0.00 77 1013.9
20260510120054 18 188 3.2 6.4 0.00 0.00 0.00 77 1013.7
20260510115624 19 131 6.4 8.0 0.00 0.00 0.00 77 1013.7
20260510115214 19 178 3.2 8.0 0.00 0.00 0.00 77 1013.8
20260510114800 19 109 8.0 9.7 0.00 0.00 0.00 77 1013.8
20260510114324 19 121 4.8 4.8 0.00 0.00 0.00 77 1013.8
20260510113912 18 91 0.0 9.7 0.00 0.00 0.00 78 1014.0
20260510113509 18 165 6.4 8.0 0.00 0.00 0.00 78 1013.9
20260510113029 18 138 8.0 12.9 0.00 0.00 0.00 78 1013.9
20260510112604 18 150 6.4 9.7 0.00 0.00 0.00 79 1014.0
20260510112119 18 124 6.4 8.0 0.00 0.00 0.00 77 1014.1
20260510111649 18 103 0.0 4.8 0.00 0.00 0.00 77 1014.3
20260510111219 18 92 6.4 9.7 0.00 0.00 0.00 77 1014.0
20260510110809 18 126 8.0 12.9 0.00 0.00 0.00 77 1014.2
20260510110349 18 146 4.8 8.0 0.00 0.00 0.00 77 1014.1
20260510105924 18 105 4.8 9.7 0.00 0.00 0.00 78 1014.3
20260510105509 18 132 8.0 16.1 0.00 0.00 0.00 77 1014.2
20260510105109 18 164 9.7 12.9 0.00 0.00 0.00 76 1014.2
20260510104647 19 169 11.3 14.5 0.00 0.00 0.00 75 1014.2
20260510104219 18 143 8.0 12.9 0.00 0.00 0.00 75 1014.4
20260510103724 18 123 1.6 9.7 0.00 0.00 0.00 76 1014.2
20260510103249 18 112 8.0 9.7 0.00 0.00 0.00 76 1014.2
20260510102804 18 154 11.3 14.5 0.00 0.00 0.00 77 1014.4
20260510102349 18 126 8.0 9.7 0.00 0.00 0.00 76 1014.2
20260510101924 18 113 4.8 9.7 0.00 0.00 0.00 76 1014.2
20260510101504 18 92 4.8 9.7 0.00 0.00 0.00 77 1014.6
20260510101038 19 134 9.7 12.9 0.00 0.00 0.00 73 1014.3
20260510100634 18 117 1.6 8.0 0.00 0.00 0.00 76 1014.2
20260510100134 18 136 4.8 6.4 0.00 0.00 0.00 77 1014.4
20260510095734 18 143 3.2 4.8 0.00 0.00 0.00 78 1014.2
20260510095306 18 123 3.2 6.4 0.00 0.00 0.00 78 1014.3
20260510094844 17 114 1.6 3.2 0.00 0.00 0.00 79 1014.4
20260510094409 17 107 1.6 4.8 0.00 0.00 0.00 79 1014.2
20260510093909 17 120 3.2 4.8 0.00 0.00 0.00 79 1014.1
20260510093444 17 112 3.2 4.8 0.00 0.00 0.00 79 1014.3
20260510092949 17 108 1.6 3.2 0.00 0.00 0.00 80 1014.1
20260510092024 17 110 3.2 6.4 0.00 0.00 0.00 82 1014.0
20260510091602 17 125 6.4 6.4 0.00 0.00 0.00 82 1014.1
20260510091139 17 64 1.6 8.0 0.00 0.00 0.00 83 1014.0
20260510090639 17 129 6.4 9.7 0.00 0.00 0.00 84 1014.1
20260510090239 17 93 4.8 8.0 0.00 0.00 0.00 83 1014.1
20260510085754 17 87 1.6 3.2 0.00 0.00 0.00 82 1014.2
20260510085306 18 106 1.6 6.4 0.00 0.00 0.00 81 1014.2
20260510084819 17 114 0.0 3.2 0.00 0.00 0.00 79 1014.2
20260510084339 17 102 1.6 4.8 0.00 0.00 0.00 80 1013.9
20260510083929 17 86 0.0 6.4 0.00 0.00 0.00 80 1014.0
20260510083514 17 151 3.2 6.4 0.00 0.00 0.00 80 1013.9
20260510083049 17 99 1.6 6.4 0.00 0.00 0.00 80 1013.8
20260510082622 17 128 3.2 4.8 0.00 0.00 0.00 80 1014.0
20260510082159 17 94 1.6 4.8 0.00 0.00 0.00 80 1013.8
20260510081734 18 93 0.0 1.6 0.00 0.00 0.00 79 1013.8
20260510081249 18 103 1.6 4.8 0.00 0.00 0.00 79 1013.8
20260510080834 17 117 0.0 4.8 0.00 0.00 0.00 79 1013.8
20260510080359 17 119 3.2 4.8 0.00 0.00 0.00 80 1013.8
20260510075902 17 101 3.2 4.8 0.00 0.00 0.00 79 1013.9
20260510075429 17 111 3.2 4.8 0.00 0.00 0.00 80 1013.9
20260510074959 17 102 3.2 6.4 0.00 0.00 0.00 80 1013.8
20260510074524 17 124 3.2 4.8 0.00 0.00 0.00 79 1013.8
20260510074049 17 109 1.6 4.8 0.00 0.00 0.00 79 1013.8
20260510073554 17 85 0.0 3.2 0.00 0.00 0.00 79 1013.8
20260510073134 17 95 0.0 1.6 0.00 0.00 0.00 79 1013.7
20260510072654 17 96 3.2 4.8 0.00 0.00 0.00 79 1013.8
20260510072249 18 110 0.0 1.6 0.00 0.00 0.00 78 1013.7
20260510071829 17 99 0.0 0.0 0.00 0.00 0.00 79 1013.7
20260510071344 18 121 0.0 0.0 0.00 0.00 0.00 78 1013.5
20260510070857 17 83 0.0 0.0 0.00 0.00 0.00 79 1013.6
20260510070424 17 107 0.0 0.0 0.00 0.00 0.00 80 1013.3
20260510070006 17 99 0.0 0.0 0.00 0.00 0.00 81 1013.4
20260510065534 17 76 0.0 1.6 0.00 0.00 0.00 83 1013.5
20260510065044 17 60 0.0 1.6 0.00 0.00 0.00 84 1013.6
20260510064554 16 86 0.0 1.6 0.00 0.00 0.00 84 1013.5
20260510064134 17 97 0.0 1.6 0.00 0.00 0.00 85 1013.5
20260510063714 17 97 0.0 0.0 0.00 0.00 0.00 85 1013.4
20260510063213 16 101 0.0 0.0 0.00 0.00 0.00 86 1013.7
20260510062734 17 102 0.0 0.0 0.00 0.00 0.00 87 1013.7
20260510062241 16 96 0.0 0.0 0.00 0.00 0.00 88 1013.5
20260510061754 16 118 0.0 0.0 0.00 0.00 0.00 88 1013.5
20260510061259 16 104 0.0 0.0 0.00 0.00 0.00 89 1013.6
20260510060829 16 109 0.0 0.0 0.00 0.00 0.00 90 1013.4
20260510060331 16 99 0.0 0.0 0.00 0.00 0.00 90 1013.3
20260510055859 15 100 0.0 0.0 0.00 0.00 0.00 91 1013.3
20260510055419 15 98 0.0 0.0 0.00 0.00 0.00 91 1013.3
20260510055004 15 94 0.0 0.0 0.00 0.00 0.00 92 1013.5
20260510054514 15 106 0.0 0.0 0.00 0.00 0.00 92 1013.2
20260510054059 15 113 0.0 0.0 0.00 0.00 0.00 92 1013.3
20260510053624 15 77 0.0 0.0 0.00 0.00 0.00 91 1013.1
20260510053224 15 159 0.0 0.0 0.00 0.00 0.00 91 1013.1
20260510052741 15 83 0.0 0.0 0.00 0.00 0.00 91 1013.3
20260510052314 15 114 0.0 0.0 0.00 0.00 0.00 91 1013.1
20260510051844 15 118 0.0 0.0 0.00 0.00 0.00 91 1013.1
20260510051409 15 92 0.0 0.0 0.00 0.00 0.00 91 1013.1
20260510050914 15 96 0.0 0.0 0.00 0.00 0.00 91 1013.1
20260510050440 15 83 0.0 0.0 0.00 0.00 0.00 90 1012.9
20260510045939 15 103 0.0 0.0 0.00 0.00 0.00 90 1013.0
20260510045507 15 85 0.0 0.0 0.00 0.00 0.00 90 1013.1
20260510045104 15 89 0.0 0.0 0.00 0.00 0.00 90 1012.8
20260510044639 15 103 0.0 0.0 0.00 0.00 0.00 90 1012.9
20260510044230 15 89 0.0 0.0 0.00 0.00 0.00 90 1012.6
20260510043744 15 82 0.0 0.0 0.00 0.00 0.00 90 1013.1
20260510043335 15 106 0.0 0.0 0.00 0.00 0.00 90 1012.8
20260510042929 15 110 0.0 0.0 0.00 0.00 0.00 90 1012.9
20260510042530 15 107 0.0 0.0 0.00 0.00 0.00 89 1012.8
20260510042124 15 104 0.0 0.0 0.00 0.00 0.00 89 1012.9
20260510041709 15 103 0.0 0.0 0.00 0.00 0.00 89 1012.6
20260510041304 15 117 0.0 1.6 0.00 0.00 0.00 89 1012.8
20260510040845 15 105 0.0 0.0 0.00 0.00 0.00 88 1012.8
20260510040354 15 105 0.0 0.0 0.00 0.00 0.00 88 1012.6
20260510035934 15 101 0.0 0.0 0.00 0.00 0.00 88 1012.6
20260510035500 15 106 0.0 0.0 0.00 0.00 0.00 88 1012.9
20260510035049 15 108 0.0 0.0 0.00 0.00 0.00 88 1012.8
20260510034604 15 102 0.0 0.0 0.00 0.00 0.00 87 1012.8
20260510034104 15 113 0.0 3.2 0.00 0.00 0.00 87 1012.8
20260510033639 15 109 0.0 0.0 0.00 0.00 0.00 88 1012.9
20260510033154 15 104 0.0 0.0 0.00 0.00 0.00 88 1012.8
20260510032734 15 99 0.0 0.0 0.00 0.00 0.00 88 1013.0
20260510032306 15 105 0.0 0.0 0.00 0.00 0.00 88 1012.9
20260510031849 15 125 0.0 0.0 0.00 0.00 0.00 87 1013.1
20260510031400 15 117 0.0 0.0 0.00 0.00 0.00 87 1012.9
20260510030914 15 101 0.0 0.0 0.00 0.00 0.00 87 1012.9
20260510030505 16 111 0.0 1.6 0.00 0.00 0.00 87 1013.0
20260510030054 15 114 1.6 3.2 0.00 0.00 0.00 87 1013.0
20260510025619 16 104 0.0 0.0 0.00 0.00 0.00 87 1013.0
20260510025154 16 103 0.0 1.6 0.00 0.00 0.00 87 1013.1
20260510024659 16 103 0.0 0.0 0.00 0.00 0.00 87 1012.9
20260510024249 16 103 0.0 0.0 0.00 0.00 0.00 87 1013.1
20260510023839 15 102 0.0 0.0 0.00 0.00 0.00 87 1013.1
20260510023434 15 96 0.0 0.0 0.00 0.00 0.00 86 1013.1
20260510023005 15 99 0.0 1.6 0.00 0.00 0.00 86 1013.1
20260510022549 15 105 0.0 1.6 0.00 0.00 0.00 87 1013.0
20260510022146 15 103 0.0 0.0 0.00 0.00 0.00 86 1013.2
20260510021724 15 97 0.0 0.0 0.00 0.00 0.00 86 1013.1
20260510021324 15 89 0.0 0.0 0.00 0.00 0.00 86 1013.0
20260510020909 15 97 0.0 0.0 0.00 0.00 0.00 86 1013.1
20260510020424 15 97 0.0 0.0 0.00 0.00 0.00 86 1013.1
20260510015924 15 96 0.0 0.0 0.00 0.00 0.00 85 1013.4
20260510015454 15 101 0.0 0.0 0.00 0.00 0.00 85 1013.2
20260510015003 16 102 0.0 3.2 0.00 0.00 0.00 84 1013.0
20260510014549 16 92 0.0 1.6 0.00 0.00 0.00 83 1013.0
20260510014149 16 94 0.0 1.6 0.00 0.00 0.00 82 1013.2
20260510013719 16 98 0.0 0.0 0.00 0.00 0.00 82 1013.1
20260510013304 16 99 0.0 0.0 0.00 0.00 0.00 81 1013.1
20260510012834 16 103 0.0 1.6 0.00 0.00 0.00 81 1013.1
20260510012439 16 114 0.0 1.6 0.00 0.00 0.00 80 1013.2
20260510012004 16 132 0.0 3.2 0.00 0.00 0.00 80 1013.3
20260510011525 16 134 3.2 6.4 0.00 0.00 0.00 80 1013.3
20260510011034 16 143 1.6 1.6 0.00 0.00 0.00 80 1013.5
20260510010617 16 109 0.0 1.6 0.00 0.00 0.00 79 1013.3
20260510010144 16 144 0.0 1.6 0.00 0.00 0.00 79 1013.3
20260510005650 16 117 0.0 0.0 0.00 0.00 0.00 78 1013.3
20260510005240 16 104 0.0 0.0 0.00 0.00 0.00 78 1013.4
20260510004755 16 111 0.0 1.6 0.00 0.00 0.00 78 1013.5
20260510004316 16 130 1.6 4.8 0.00 0.00 0.00 77 1013.5
20260510003900 16 154 3.2 6.4 0.00 0.00 0.00 78 1013.7
20260510003450 16 170 1.6 4.8 0.00 0.00 0.00 78 1013.7
20260510003000 15 120 1.6 4.8 0.00 0.00 0.00 81 1013.5
20260510002500 15 118 0.0 1.6 0.00 0.00 0.00 82 1013.6
20260510002045 15 99 0.0 0.0 0.00 0.00 0.00 82 1013.7
20260510001640 16 101 0.0 0.0 0.00 0.00 0.00 82 1013.6
20260510001235 15 93 0.0 0.0 0.00 0.00 0.00 81 1013.7
20260510000745 16 103 0.0 0.0 0.00 0.00 0.00 80 1013.8
20260510000315 16 119 0.0 0.0 0.00 0.00 0.00 80 1013.7
20260509235850 16 64 3.2 3.2 0.00 0.00 0.00 79 1013.6
20260509235410 16 95 0.0 1.6 0.00 0.00 0.00 78 1013.7